Вернуться в каталог

FENGYUN 1C DEB

АктивенPO
NORAD 31916·DEBRIS·🇨🇳 China

Запущен May 10, 1999 с Taiyuan Satellite Launch Center

Loading…

Ближайшие Пролёты (ближайшие 24 часа)

TLE

СвежийSource: Space-Track

Эпоха: Sep 14, 2026, 13:34 UTC

1 31916U 99025CLT 26257.56569005  .00001799  00000-0  58679-3 0  9997
2 31916  99.3319   9.1683 0141688  19.0331 341.6072 14.34524949684790

Отслеживайте FENGYUN 1C DEB в реальном времени с AllMySat

Download on the App Store